STARLINK-36664, 68965

Orbit data source: Space-Track

STARLINK-36664, 68965 is a payload satellite owned by SpaceX/Seattle (US) in LEO that was launched on Fri, 01 May 2026 UTC via an FALCON 9 launch vehicle from the Air Force Eastern Test Range (AFETR). Payload-class satellites include a variety of spacecraft equipped with specific instruments for various scientific and technological missions. These include communications satellites like Starlink; space stations such as the ISS; scientific satellites like the Hubble; Earth observation satellites from companies like Planet Labs, Umbra, and HawkEye 360; GPS; miniature CubeSats for education and research; and military/defense satellites.

Loading next visibility...
Identifier
68965, 2026-099Q
Orbit
LEO
Country
Flag of USUS
Related business
Manufacturer
SpaceX/Seattle
Mission
Operational spacecraft
Bus & Motor
STARLINK V2MO, Unknown motor
Mass
575 kg wet, ~530 kg dry
Launch date (UTC)
2026-05-01 (2 months ago)
Launch vehicle
FALCON 9
Launch site
Air Force Eastern Test Range (AFETR)
Object type
Payload
Rocket body
Debris
Shape & HBR
Unknown shape, 14.5 m
Radar Cross Section
Large (>1 m²)

Expand to show TLE details & history
Last TLE update: 15 hours ago

TLE from 15 hours ago
0 STARLINK-36664
1 68965U 26099Q   26171.25729009  .00008359  00000-0  25824-3 0  9990
2 68965  53.1594 146.9362 0001289  84.9533 275.1616 15.34402156  7743
Epoch: 2026-06-20T06:10Z
TLE epoch observation values (Epoch: 2026-06-20T06:10:29.863Z)
Latitude
-0.00009°
Longitude
145.83719°
Altitude
463.519 km
Speed
7.636 km/s
True Right ascension
09h 47m 44s
True Declination
0° 00' 00"
Sunlit
Object was in daylight at epoch
Visualization orbit readout
Latitude
Unknown
Longitude
Unknown
Altitude
Unknown
Speed
Unknown
Apparent Right ascension
Unknown
Apparent Declination
Unknown
Sunlit
N/A
Visualization observer readout
Local Sidereal Time
08:32:35
Azimuth
Unknown
Elevation
Unknown
Doppler factor
Unknown
Orbital elements
Apogee altitude
463.836 km
Perigee altitude
462.072 km
Semi-major axis
6,841.091 km
Eccentricity
0.00013
Inclination
53.1594°
RAAN
146.9362°
Arg. of periapsis
84.9533°
True anomaly
275.14689°
Mean anomaly
275.1616°
Eccentric anomaly
275.15424°
Mean motion
3.83579 °/min
Orbital period
93.85 mins
BSTAR
0.00025824
Loading maneuver chart data...
Computing Atmospheric mass density...
Loading historical data...
Loading historical data...
Loading historical data...
Loading historical data...
Loading historical data...
Loading historical data...
Loading historical data...

Documentation

Showing up to 5 results
|